World > North America > United States > South Carolina

Abbeville, South Carolina Regional Weather

Lat: 34.18N, Lon: 82.38W
Wx Zone: SCZ011Web Search

Helpful Tip: Type the letters wx in the search engine next time you need to find us.

Feedback


°F Click to change Abbeville hourly weather to Imperial units.Click to change Abbeville hourly weather to Metric units. °C
Abbeville Weather Map
UTC Time: 4/14/2021, 14:57
Your Time:

Abbeville, SC Regional Weather

Expires:202104141500;;541621
ASUS42 KCAE 141410
RWRCAE
REGIONAL WEATHER ROUNDUP
NATIONAL WEATHER SERVICE COLUMBIA SC
1000 AM EDT WED APR 14 2021

NOTE: "FAIR" INDICATES FEW OR NO CLOUDS BELOW 12,000 FEET WITH NO
SIGNIFICANT WEATHER AND/OR OBSTRUCTIONS TO VISIBILITY.

NOT ALL STATIONS ARE QUALITY CONTROLLED BY THE NATIONAL 
WEATHER SERVICE. USE DATA WITH CAUTION...ESPECIALLY 
DEWPOINT OBSERVATIONS.


SCZ001>059-115-116-135>137-GAZ040-063>065-077-141500-
...UPSTATE SOUTH CAROLINA...
  
CITY           SKY/WX    TMP DP  RH WIND       PRES   REMARKS
ANDERSON         N/A    N/A N/A N/A MISG      30.06S                  
LIBERTY        SUNNY     70  53  54 CALM      30.06S                  
SPARTANBURG    SUNNY     63  50  63 CALM      30.07S                  
CLEMSON        SUNNY     66  50  56 NE3       30.07F                  
GREENVILLE     SUNNY     69  48  47 E5        30.07F                  
GREENWOOD      SUNNY     65  56  72 CALM      30.07F                  
GREER          SUNNY     66  47  50 E3        30.07F                  
ROCK HILL      SUNNY     67  54  63 SW7       30.07F                  
CHESTER        SUNNY     66  52  59 CALM      30.08S                  
LAURENS        SUNNY     64  54  68 CALM      30.07S                  


...CENTRAL SOUTH CAROLINA...
  
CITY           SKY/WX    TMP DP  RH WIND       PRES   REMARKS
COLUMBIA APT   SUNNY     68  57  68 S7        30.07S                  
COLUMBIA OWENS SUNNY     67  58  72 S7        30.08F                  
MCENTIRE ANGB  SUNNY     70  59  69 S8        30.06                   
ORANGEBURG     SUNNY     69  59  70 S10       30.09F                  
SUMTER SHAW    SUNNY     72  59  63 S10       30.08                   
AIKEN          FAIR      68  56  65 S7        30.09S                  
BARNWELL       FAIR      70  57  64 S7        30.08F                  
MANNING        FAIR      70  54  56 S8        30.10S                  
CAMDEN         FAIR      70  57  64 VRB5      30.09S                  
LANCASTER        N/A    N/A N/A N/A MISG        N/A                   
WINNSBORO      SUNNY     66  54  63 S7        30.08R                  


...EASTERN AND COASTAL SOUTH CAROLINA...
  
CITY           SKY/WX    TMP DP  RH WIND       PRES   REMARKS
MYRTLE BEACH   SUNNY     68  62  81 SE8       30.13F                  
N MYRTLE BCH   SUNNY     68  59  73 S8        30.12F                  
CONWAY         FAIR      70  59  68 S5        30.12F                  
MARION         FAIR      68  55  64 SW9       30.10F                  
HARTSVILLE       N/A     70  52  52 VRB6G13   30.09S                  
FLORENCE       SUNNY     72  52  49 SW10      30.09F                  
DARLINGTON     SUNNY     72  54  53 SW10      30.09F                  
CHARLESTON APT MOSUNNY   73  61  65 S14       30.11S                  
MOUNT PLEASANT FAIR      72  64  78 S8        30.12S                  
WALTERBORO     SUNNY     72  59  64 S10G18    30.11S                  
BEAUFORT       SUNNY     75  62  64 S9        30.10F                  
HILTON HEAD    SUNNY     72  63  73 S7        30.12S                  


...EASTERN GEORGIA...
  
CITY           SKY/WX    TMP DP  RH WIND       PRES   REMARKS
AUGUSTA BUSH F SUNNY     68  57  68 SE6       30.06S                  
AUGUSTA DANIEL SUNNY     68  55  63 CALM      30.08R                  
THOMSON        SUNNY     68  57  67 N3        30.06S                  
WASHINGTON     FAIR      66  55  68 CALM      30.06F                  
CLAXTON        FAIR      72  62  71 CALM      30.10R                  
SYLVANIA       SUNNY     69  60  70 SW5       30.10S                  
STATESBORO     SUNNY     71  58  63 SW7       30.09S                  
SAVANNAH       MOSUNNY   72  62  71 S13       30.10F                  


...SOUTHERN NORTH CAROLINA...
  
CITY           SKY/WX    TMP DP  RH WIND       PRES   REMARKS
CHARLOTTE      MOSUNNY   68  55  63 SW7       30.07F                  
MONROE         SUNNY     69  55  60 SW7       30.07S                  
WADESBORO      SUNNY     67  55  64 CALM      30.08F                  
ROCKINGHAM     SUNNY     70  52  53 SW10      30.08F                  
RUTHERFORDTON  SUNNY     66  52  59 CALM      30.08F                  
ASHEVILLE      SUNNY     59  50  72 VRB3      30.11F                  

$$
  

SKY/WX - Weather  TMP - Temperature  DP - Dew Point  RH - Relative Humidity
WIND - Wind Direction/Speed PRES - Barometric Pressure VSB - Visibility
WCI - Wind Chill Index E13G22 Wind - East Wind 13 mph/Gusts of 22 mph